[Iaude] MPEC A231: 2019 AM10 [a=1.16,e=0.14,i=6.2,H=25.0]

mpec at mpcdb1.cfa.harvard.edu mpec at mpcdb1.cfa.harvard.edu
Mon Jan 14 07:41:17 EST 2019


M.P.E.C. 2019-A231                               Issued 2019 Jan. 14, 12:38 UT
 
     The Minor Planet Electronic Circulars contain information on unusual
         minor planets and routine data on comets.  They are published
    on behalf of Division F of the International Astronomical Union by the
          Minor Planet Center, Smithsonian Astrophysical Observatory,
                          Cambridge, MA 02138, U.S.A.

             Prepared using the Tamkin Foundation Computer Network

                              MPC at CFA.HARVARD.EDU
            URL https://www.minorplanetcenter.net/    ISSN 1523-6714


                                   2019 AM10
 
Observations:
     K19A10M* C2019 01 11.57754 11 02 55.944+48 30 50.58         20.6 wUEA231F51
     K19A10M  C2019 01 11.59004 11 02 49.335+48 29 13.14         20.7 wUEA231F51
     K19A10M  C2019 01 11.60229 11 02 42.880+48 27 36.49         20.2 wUEA231F51
     K19A10M  C2019 01 11.61452 11 02 36.444+48 25 59.22         20.1 wUEA231F51
     K19A10M  C2019 01 12.44279 10 57 04.63 +46 35 35.7          19.2 GVEA231I52
     K19A10M  C2019 01 12.44321 10 57 04.40 +46 35 32.9          19.8 GVEA231I52
     K19A10M  C2019 01 12.44362 10 57 04.20 +46 35 28.4          19.4 GVEA231I52
     K19A10M  C2019 01 12.44404 10 57 03.98 +46 35 25.0          19.7 GVEA231I52
     K19A10M ^C2019 01 12.65839510 55 29.341+46 06 54.19         19.77GVEA231568
     K19A10M ^C2019 01 12.66009010 55 28.510+46 06 39.71         19.75GVEA231568
     K19A10M ^C2019 01 12.66109810 55 28.017+46 06 31.13         19.69GVEA231568
     K19A10M ^C2019 01 12.66211510 55 27.517+46 06 22.48         19.71GVEA231568
     K19A10M KC2019 01 13.92498410 47 42.26 +43 09 47.4          19.3 GVEA231J95
     K19A10M KC2019 01 13.93046410 47 40.10 +43 09 03.7          20.3 GVEA231J95
     K19A10M KC2019 01 13.93990110 47 36.37 +43 07 49.1          19.8 GVEA231J95
     K19A10M KC2019 01 13.98691 10 47 17.01 +43 02 10.5          19.0 RVEA231K63
     K19A10M KC2019 01 13.99052 10 47 15.45 +43 01 42.5          19.1 RVEA231K63
     K19A10M KC2019 01 13.99605 10 47 13.12 +43 00 56.8          19.6 RVEA231K63
 
Observer details:
568 Mauna Kea.  Observers R. Wainscoat, L. Wells, S. Prunet.  Measurers
    R. Weryk, R. Wainscoat.  3.6-m Canada-France-Hawaii Telescope + CCD.
F51 Pan-STARRS 1, Haleakala.  Observers J. Bulger, T. Lowe, A. Schultz,
    M. Willman.  Measurers K. Chambers, S. Chastel, L. Denneau, J. Fairlamb,
    H. Flewelling, M. Huber, C.-C. Lin, E. Magnier, Y. Ramanjooloo,
    R. Wainscoat, R. Weryk.  1.8-m Ritchey-Chretien + CCD.
I52 Steward Observatory, Mt. Lemmon Station.  Observer B. M. Africano.
    Measurers B. M. Africano, E. J. Christensen, G. A. Farneth, D. C. Fuls,
    A. R. Gibbs, A. D. Grauer, H. Groeller, R. A. Kowalski, S. M. Larson,
    G. J. Leonard, R. L. Seaman, F. C. Shelly.  1.0-m reflector + CCD.
J95 Great Shefford.  Observer P. Birtwhistle.  0.41-m f/6.3
    Schmidt-Cassegrain + CCD.
K63 G. Pascoli Observatory, Castelvecchio Pascoli.  Observer R. Bacci.
    0.41-m f/3.2 Newtonian reflector + CCD.
 
Orbital elements:
2019 AM10                                                Earth MOID = 0.0406 AU
Epoch 2019 Apr. 27.0 TT = JDT 2458600.5                 MPC
M 103.75959              (2000.0)            P               Q
n   0.79054540     Peri.  137.97200     +0.08409305     -0.99277304
a   1.1583812      Node   307.02687     +0.88329692     +0.11403561
e   0.1359365      Incl.    6.15626     +0.46121027     -0.03738422
P   1.25           H   25.0           G   0.15           U   6
Residuals in seconds of arc
190111 F51  0.0   0.1-    190112 I52  0.0   0.6-    190113 J95  0.2+  0.3+
190111 F51  0.1-  0.1+    190112 I52  0.1-  0.6-    190113 J95  0.0   0.2-
190111 F51  0.0   0.0     190112 568  0.0   0.1+    190113 J95  0.2-  0.2-
190111 F51  0.0   0.0     190112 568  0.1+  0.1+    190113 K63  0.2-  0.0
190112 I52  0.1+  0.1+    190112 568  0.1+  0.1+    190113 K63  0.2-  0.9+
190112 I52  0.1-  0.6+    190112 568  0.1+  0.1+    190113 K63  0.6+  0.4-

Ephemeris:
2019 AM10                a,e,i = 1.16, 0.14, 6                   q = 1.0009
Date    TT    R. A. (2000) Decl.     Delta      r     Elong.  Phase     V
2018 12 15    16 07 37.3 +76 03 43   0.07628 1.0005   100.1    75.6    22.1
...
2018 12 30    12 55 46.6 +68 31 11   0.05729 1.0040   109.6    67.3    21.2
...
2019 01 07    11 37 44.1 +57 31 05   0.04901 1.0095   121.1    56.5    20.5
...
2019 01 13    10 53 24.3 +45 19 26   0.04531 1.0152   133.5    44.7    20.0
2019 01 14    10 47 03.7 +43 00 56   0.04500 1.0163   135.8    42.5    20.0
2019 01 15    10 40 59.4 +40 39 09   0.04480 1.0174   138.1    40.2    19.9
...
2019 01 21    10 09 43.5 +26 04 00   0.04582 1.0246   152.0    26.8    19.6
...
2019 01 29    09 38 56.8 +09 06 05   0.05319 1.0361   163.8    15.3    19.6
...
2019 02 13    09 05 05.4 -08 06 40   0.08099 1.0618   156.2    22.0    20.7

A. U. Tomatic                (C) Copyright 2019 MPC           M.P.E.C. 2019-A231



More information about the Iaude mailing list